PROBA-1

Last updated on Fri Dec 29 2023 00:03:28 GMT+0000 (Coordinated Universal Time)

1 26958U 01049B 23362.46809748 .00004304 00000+0 33985-3 0 9997 2 26958 97.9012 331.0675 0062697 277.1167 82.2929 14.99717048208143
UTC large
Height (km)
Speed (km/s)
/
Latitude / Longitude
Inclination (degrees)
Orbital Period (minutes)
Azimuth
Elevation
Range (km)
Doppler Factor

Next 0 passes for location: London (51.5072 / 0.1276)

Sorry there are no passes over London.